Weather in Krasnoflotskoe

Russia / Voronezh Oblast     50°04′02″N   41°14′14″E
temp.,
°C
wind,
m/s
gust,
m/s
humid.,
%
clouds,
%
prec.,
mm/h
press.,
hPa
HPBL,
m
25 february, thu
thu2500:00−14ssw368192 0.0 1039278
03:00−13ssw488293 0.0 1037337
06:00−12ssw5982100 0.0 1035375
09:00−11ssw61083100 0.0 1033403
12:00−8sw71092100 0.2 1030476
15:00−6sw71192100 0.4 1027519
18:00−4sw61293100 0.2 1024392
21:00−3wsw61296100 0.8 1022374
26 february, fri
fri2600:00−1wsw61297100 0.6 1020332
03:00+1w61298100 1.1 1020340
06:00+1w51098100 0.3 1019264
09:00+1wnw51099100 0.5 1020255
12:00+3w610100100 0.1 1019273
15:00+3w61199100 0.1 1018284
18:00+2wsw61399100 0.0 1016348
21:00+2w71498100 0.0 1015443
27 february, sat
sat2700:00+2w61397100 0.2 1013380
03:00+2w61395100 0.3 1013411
06:00+1w51196100 0.0 1011426
09:00+1w61295100 0.0 1010569
12:00+2w71293100 0.0 1009696
15:00+2wnw61193100 0.1 1009677
18:00+1w61295100 0.1 1009580
21:00+1wnw6119599 0.1 1010519
28 february, sun
sun2800:000wnw51098100 0.1 1009472
03:000wnw5998100 0.4 1010447
06:00−1wnw4896100 0.1 1011336
09:000nnw578594 0.2 1013706
12:00−2nnw5774100 0.0 1014643
15:00−2nnw587289 0.0 1015722
18:00−3n587891 0.0 1017704
21:00−4n577995 0.0 1020736
1 march, mon
mon100:00−4n5781100 0.1 1021735
03:00−5nnw3583100 0.1 1023627
06:00−5nnw4785100 0.0 1024624
09:00−5n5778100 0.1 1026711
12:00−4nnw5672100 0.0 1027756
15:00−4nnw5670100 0.1 1028768
18:00−4n587598 0.0 1029772
21:00−5nnw268486 0.0 1030425